COSMOS 1691 DEB, 43316

Orbit data source: Space-Track

COSMOS 1691 DEB, 43316 is space debris in LEO originally from a launch on Wed, 09 Oct 1985 UTC launched from the Plesetsk Missile And Space Complex (PKMTR). Debris objects in space refer to the collection of defunct objects orbiting the Earth. Examples of debris include non-operational satellites, rocket bodies, and fragments generated from explosions, collisions, or faulty payload assembly.

Loading next visibility...
COSMOS 1691 DEB details
Identifier
43316, 1985-094AA
Orbit
LEO
Last TLE update1 week ago
Origin
Flag of CISRVSN (CIS)
ManufacturerUnknown
MissionSpacecraft
Bus & MotorUnknown
MassUnknown
Launch date (UTC)
1985-10-09 (39 years ago)
Launch vehicleUnknown
Launch site
Plesetsk Missile And Space Complex (PKMTR)
Object type
Payload
Rocket body
Debris
Shape & HBRUnknown
Radar Cross SectionSmall (<0.1 m²)

Expand to show TLE details & history

TLE from 1 week ago
0 COSMOS 1691 DEB
1 43316U 85094AA  24355.31411450  .00000568  00000-0  27787-2 0  9993
2 43316  82.6036 196.0722 0010806 240.3840 119.6180 12.70781725  6469
Epoch: 2024-12-20T07:32Z
Definitive object data (Epoch: 2024-12-20T07:32:19.492Z)
Latitude-0.00004°
Longitude-6.39043°
Altitude1,385.65 km
Speed7.165 km/s
True Right ascension13h 04m 17s
True Declination0° 00' 00"
Sunlit
Object was in daylight at TLE epoch
Visualization TLE readout
Latitude5.58699°
Longitude168.64115°
Altitude1,375.635 km
Speed7.174 km/s
Apparent Right ascension03h 19m 18s
Apparent Declination-25° 50' 49"
Sunlit
Object is in daylight
Visualization observer readout
Local Sidereal Time20:40:09
Azimuth104.914° ESE
Elevation-23.396°
Doppler factor1
Orbital elements
Apogee altitude1,384.444 km
Perigee altitude1,367.686 km
Semi-major axis7,754.202 km
Eccentricity0.0010806
Inclination82.6036°
RAAN196.0722°
Arg. of periapsis240.384°
True anomaly119.72558°
Mean anomaly119.618°
Eccentric anomaly119.6718°
Mean motion3.17861 °/min
BSTAR0.0027787
Orbital period113.26 mins
Loading maneuver chart data...
Loading historical data...
Loading historical data...
Loading historical data...
Loading historical data...
Loading historical data...
Loading historical data...
Loading historical data...

COSMOS 1691 DEB Visibility forecast

Observer location: undefined°, undefined

Span
Click to sort rows by Start time (UTC) header in descending order
Start Az.
Max El. time (UTC)
Max El. Az.
Max El.
End time (UTC)
End Az.
8 mins2024-12-26 22:53:11.166Z29.157° NE2024-12-26 22:57:11.166Z59.758° ENE15.344°2024-12-26 23:01:11.166Z91.471° ESE
14 mins2024-12-27 00:46:11.166Z354.286° N2024-12-27 00:53:11.166Z112.105° ESE44.806°2024-12-27 01:00:11.166Z171.406° S
7 mins2024-12-27 02:43:11.166Z306.044° NW2024-12-27 02:46:11.166Z280.817° WNW16.965°2024-12-27 02:50:11.166Z248.82° W
5 mins2024-12-27 11:40:11.166Z93.333° ESE2024-12-27 11:42:11.166Z78.051° E13.143°2024-12-27 11:45:11.166Z55.252° ENE
15 mins2024-12-27 13:28:11.166Z179.291° S2024-12-27 13:35:11.166Z102.07° ESE44.549°2024-12-27 13:43:11.166Z10.04° NNE
9 mins2024-12-27 15:26:11.166Z258.726° W2024-12-27 15:30:11.166Z292.37° WNW19.222°2024-12-27 15:35:11.166Z333.993° NNW
|